Year,Month,Day,Hour,Minute,Value (Times are PST for temperature in C)
2009,04,05,07,58,-0.30
2009,04,05,07,59,-0.30
2009,04,05,08,00,-0.30
2009,04,05,08,01,-0.30
2009,04,05,08,02,-0.20
2009,04,05,08,03,-0.20
2009,04,05,08,04,-0.20
2009,04,05,08,05,-0.20
2009,04,05,08,06,-0.10
2009,04,05,08,07,-0.10
2009,04,05,08,08,-0.10
2009,04,05,08,09,-0.10
2009,04,05,08,10,0.00
2009,04,05,08,11,0.00
2009,04,05,08,12,0.10
2009,04,05,08,13,0.10
2009,04,05,08,14,0.10
2009,04,05,08,15,0.10
2009,04,05,08,16,0.20
2009,04,05,08,17,0.20
2009,04,05,08,18,0.30
2009,04,05,08,19,0.30
2009,04,05,08,20,0.40
2009,04,05,08,21,0.40
2009,04,05,08,22,0.50
2009,04,05,08,23,0.50
2009,04,05,08,24,0.50
2009,04,05,08,25,0.60
2009,04,05,08,26,0.60
2009,04,05,08,27,0.70
2009,04,05,08,28,0.70
2009,04,05,08,29,0.80
2009,04,05,08,30,0.80
2009,04,05,08,31,0.90
2009,04,05,08,32,1.00
2009,04,05,08,33,1.10
2009,04,05,08,34,1.10
2009,04,05,08,35,1.20
2009,04,05,08,36,1.30
2009,04,05,08,37,1.30
2009,04,05,08,38,1.30
2009,04,05,08,39,1.40
2009,04,05,08,40,1.50
2009,04,05,08,41,1.60
2009,04,05,08,42,1.60
2009,04,05,08,43,1.70
2009,04,05,08,44,1.80
2009,04,05,08,45,1.80
2009,04,05,08,46,2.00
2009,04,05,08,47,2.10
2009,04,05,08,48,2.20
2009,04,05,08,49,2.20
2009,04,05,08,50,2.30
2009,04,05,08,51,2.40
2009,04,05,08,52,2.50
2009,04,05,08,53,2.70
2009,04,05,08,54,2.80
2009,04,05,08,55,3.00
2009,04,05,08,56,3.10
2009,04,05,08,57,3.20
2009,04,05,08,58,3.40
2009,04,05,08,59,3.50
2009,04,05,09,00,3.60
2009,04,05,09,01,3.70
2009,04,05,09,02,3.80
2009,04,05,09,03,3.90
2009,04,05,09,04,4.00
2009,04,05,09,05,4.20
2009,04,05,09,06,4.40
2009,04,05,09,07,4.60
2009,04,05,09,08,4.80
2009,04,05,09,09,5.00
2009,04,05,09,10,5.30
2009,04,05,09,11,5.50
2009,04,05,09,12,5.70
2009,04,05,09,13,5.80
2009,04,05,09,14,5.90
2009,04,05,09,15,5.90
2009,04,05,09,16,6.10
2009,04,05,09,17,6.10
2009,04,05,09,18,6.20
2009,04,05,09,19,6.30
2009,04,05,09,20,6.40
2009,04,05,09,21,6.50
2009,04,05,09,22,6.60
2009,04,05,09,23,6.70
2009,04,05,09,24,6.80
2009,04,05,09,25,6.90
2009,04,05,09,26,6.90
2009,04,05,09,27,7.00
2009,04,05,09,28,7.10
2009,04,05,09,29,7.20
2009,04,05,09,30,7.20
2009,04,05,09,31,7.30
2009,04,05,09,32,7.40
2009,04,05,09,33,7.50
2009,04,05,09,34,7.50
2009,04,05,09,35,7.60
2009,04,05,09,36,7.70
2009,04,05,09,37,7.70
2009,04,05,09,38,7.80
2009,04,05,09,39,7.80
2009,04,05,09,40,7.90
2009,04,05,09,41,8.00
2009,04,05,09,42,8.00
2009,04,05,09,43,8.00
2009,04,05,09,44,8.00
2009,04,05,09,45,8.00
2009,04,05,09,46,8.10
2009,04,05,09,47,8.10
2009,04,05,09,48,8.10
2009,04,05,09,49,8.20
2009,04,05,09,50,8.20
2009,04,05,09,51,8.20
2009,04,05,09,52,8.20
2009,04,05,09,53,8.20
2009,04,05,09,54,8.30
2009,04,05,09,55,8.40
2009,04,05,09,56,8.40
2009,04,05,09,57,8.50
2009,04,05,09,58,8.60
2009,04,05,09,59,8.70
2009,04,05,10,00,8.70
2009,04,05,10,01,8.80
2009,04,05,10,02,8.80
2009,04,05,10,03,8.80
2009,04,05,10,04,8.80
2009,04,05,10,05,8.90
2009,04,05,10,06,8.90
2009,04,05,10,07,9.00
2009,04,05,10,08,9.10
2009,04,05,10,09,9.20
2009,04,05,10,10,9.30
2009,04,05,10,11,9.30
2009,04,05,10,12,9.40
2009,04,05,10,13,9.50
2009,04,05,10,14,9.50
2009,04,05,10,15,9.60
2009,04,05,10,16,9.60
2009,04,05,10,17,9.60
2009,04,05,10,18,9.70
2009,04,05,10,19,9.80
2009,04,05,10,20,9.80
2009,04,05,10,21,9.90
2009,04,05,10,22,10.00
2009,04,05,10,23,10.00
2009,04,05,10,24,10.10
2009,04,05,10,25,10.10
2009,04,05,10,26,10.00
2009,04,05,10,27,9.90
2009,04,05,10,28,9.90
2009,04,05,10,29,9.80
2009,04,05,10,30,9.70
2009,04,05,10,31,9.70
2009,04,05,10,32,9.60
2009,04,05,10,33,9.60
2009,04,05,10,34,9.60
2009,04,05,10,35,9.60
2009,04,05,10,36,9.60
2009,04,05,10,37,9.60
2009,04,05,10,38,9.60
2009,04,05,10,39,9.60
2009,04,05,10,40,9.60
2009,04,05,10,41,9.70
2009,04,05,10,42,9.70
2009,04,05,10,43,9.80
2009,04,05,10,44,9.90
2009,04,05,10,45,9.90
2009,04,05,10,46,10.00
2009,04,05,10,47,10.10
2009,04,05,10,48,10.20
2009,04,05,10,49,10.20
2009,04,05,10,50,10.30
2009,04,05,10,51,10.20
2009,04,05,10,52,10.10
2009,04,05,10,53,10.10
2009,04,05,10,54,10.10
2009,04,05,10,55,10.10
2009,04,05,10,56,10.10
2009,04,05,10,57,10.10
2009,04,05,10,58,10.10
2009,04,05,10,59,10.10
2009,04,05,11,00,10.20
2009,04,05,11,01,10.20
2009,04,05,11,02,10.20
2009,04,05,11,03,10.20
2009,04,05,11,04,10.30
2009,04,05,11,05,10.40
2009,04,05,11,06,10.50
2009,04,05,11,07,10.60
2009,04,05,11,08,10.70
2009,04,05,11,09,10.70
2009,04,05,11,10,10.80
2009,04,05,11,11,10.80
2009,04,05,11,12,10.90
2009,04,05,11,13,11.00
2009,04,05,11,14,11.10
2009,04,05,11,15,11.20
2009,04,05,11,16,11.20
2009,04,05,11,17,11.10
2009,04,05,11,18,11.00
2009,04,05,11,19,10.80
2009,04,05,11,20,10.80
2009,04,05,11,21,10.80
2009,04,05,11,22,10.80
2009,04,05,11,23,10.80
2009,04,05,11,24,10.80
2009,04,05,11,25,10.90
2009,04,05,11,26,11.00
2009,04,05,11,27,11.00
2009,04,05,11,28,11.10
2009,04,05,11,29,11.10
2009,04,05,11,30,11.10
2009,04,05,11,31,11.10
2009,04,05,11,32,11.10
2009,04,05,11,33,11.10
2009,04,05,11,34,11.20
2009,04,05,11,35,11.20
2009,04,05,11,36,11.20
2009,04,05,11,37,11.20
2009,04,05,11,38,11.30
2009,04,05,11,39,11.40
2009,04,05,11,40,11.50
2009,04,05,11,41,11.60
2009,04,05,11,42,11.60
2009,04,05,11,43,11.60
2009,04,05,11,44,11.70
2009,04,05,11,45,11.70
2009,04,05,11,46,11.90
2009,04,05,11,47,12.00
2009,04,05,11,48,12.10
2009,04,05,11,49,12.30
2009,04,05,11,50,12.40
2009,04,05,11,51,12.50
2009,04,05,11,52,12.50
2009,04,05,11,53,12.50
2009,04,05,11,54,12.40
2009,04,05,11,55,12.40
2009,04,05,11,56,12.30
2009,04,05,11,57,12.30
2009,04,05,11,58,12.30
2009,04,05,11,59,12.30
2009,04,05,12,00,12.40
2009,04,05,12,01,12.40
2009,04,05,12,02,12.30
2009,04,05,12,03,12.30
2009,04,05,12,04,12.30
2009,04,05,12,05,12.30
2009,04,05,12,06,12.30
2009,04,05,12,07,12.40
2009,04,05,12,08,12.40
2009,04,05,12,09,12.30
2009,04,05,12,10,12.30
2009,04,05,12,11,12.40
2009,04,05,12,12,12.50
2009,04,05,12,13,12.60
2009,04,05,12,14,12.70
2009,04,05,12,15,12.70
2009,04,05,12,16,12.80
2009,04,05,12,17,12.80
2009,04,05,12,18,12.80
2009,04,05,12,19,12.80
2009,04,05,12,20,12.80
2009,04,05,12,21,12.80
2009,04,05,12,22,12.80
2009,04,05,12,23,12.90
2009,04,05,12,24,12.90
2009,04,05,12,25,12.90
2009,04,05,12,26,13.00
2009,04,05,12,27,13.00
2009,04,05,12,28,13.00
2009,04,05,12,29,13.00
2009,04,05,12,30,13.00
2009,04,05,12,31,13.00
2009,04,05,12,32,13.00
2009,04,05,12,33,12.90
2009,04,05,12,34,13.00
2009,04,05,12,35,13.00
2009,04,05,12,36,13.10
2009,04,05,12,37,13.10
2009,04,05,12,38,13.10
2009,04,05,12,39,13.10
2009,04,05,12,40,13.10
2009,04,05,12,41,13.10
2009,04,05,12,42,13.10
2009,04,05,12,43,13.10
2009,04,05,12,44,13.20
2009,04,05,12,45,13.30
2009,04,05,12,46,13.40
2009,04,05,12,47,13.50
2009,04,05,12,48,13.60
2009,04,05,12,49,13.60
2009,04,05,12,50,13.50
2009,04,05,12,51,13.60
2009,04,05,12,52,13.50
2009,04,05,12,53,13.40
2009,04,05,12,54,13.40
2009,04,05,12,55,13.40
2009,04,05,12,56,13.50
2009,04,05,12,57,13.50
2009,04,05,12,58,13.40
2009,04,05,12,59,13.50
2009,04,05,13,00,13.50
2009,04,05,13,01,13.50
2009,04,05,13,02,13.50
2009,04,05,13,03,13.60
2009,04,05,13,04,13.50
2009,04,05,13,05,13.50
2009,04,05,13,06,13.40
2009,04,05,13,07,13.40
2009,04,05,13,08,13.50
2009,04,05,13,09,13.50
2009,04,05,13,10,13.60
2009,04,05,13,11,13.60
2009,04,05,13,12,13.50
2009,04,05,13,13,13.40
2009,04,05,13,14,13.40
2009,04,05,13,15,13.50
2009,04,05,13,16,13.60
2009,04,05,13,17,13.60
2009,04,05,13,18,13.70
2009,04,05,13,19,13.80
2009,04,05,13,20,13.80
2009,04,05,13,21,13.80
2009,04,05,13,22,13.80
2009,04,05,13,23,13.90
2009,04,05,13,24,13.90
2009,04,05,13,25,13.90
2009,04,05,13,26,13.80
2009,04,05,13,27,13.80
2009,04,05,13,28,13.80
2009,04,05,13,29,13.80
2009,04,05,13,30,13.90
2009,04,05,13,31,13.90
2009,04,05,13,32,14.00
2009,04,05,13,33,14.00
2009,04,05,13,34,13.90
2009,04,05,13,35,13.80
2009,04,05,13,36,13.70
2009,04,05,13,37,13.70
2009,04,05,13,38,13.70
2009,04,05,13,39,13.70
2009,04,05,13,40,13.70
2009,04,05,13,41,13.80
2009,04,05,13,42,13.80
2009,04,05,13,43,13.90
2009,04,05,13,44,13.90
2009,04,05,13,45,14.00
2009,04,05,13,46,14.10
2009,04,05,13,47,14.10
2009,04,05,13,48,14.00
2009,04,05,13,49,13.90
2009,04,05,13,50,13.80
2009,04,05,13,51,13.70
2009,04,05,13,52,13.70
2009,04,05,13,53,13.70
2009,04,05,13,54,13.70
2009,04,05,13,55,13.70
2009,04,05,13,56,13.80
2009,04,05,13,57,13.80
2009,04,05,13,58,13.80
2009,04,05,13,59,13.80
2009,04,05,14,00,13.90
2009,04,05,14,01,13.90
2009,04,05,14,02,13.90
2009,04,05,14,03,13.80
2009,04,05,14,04,13.80
2009,04,05,14,05,13.90
2009,04,05,14,06,13.90
2009,04,05,14,07,14.00
2009,04,05,14,08,14.10
2009,04,05,14,09,14.10
2009,04,05,14,10,14.20
2009,04,05,14,11,14.10
2009,04,05,14,12,14.10
2009,04,05,14,13,14.10
2009,04,05,14,14,14.20
2009,04,05,14,15,14.30
2009,04,05,14,16,14.30
2009,04,05,14,17,14.40
2009,04,05,14,18,14.40
2009,04,05,14,19,14.40
2009,04,05,14,20,14.30
2009,04,05,14,21,14.30
2009,04,05,14,22,14.40
2009,04,05,14,23,14.40
2009,04,05,14,24,14.40
2009,04,05,14,25,14.30
2009,04,05,14,26,14.20
2009,04,05,14,27,14.20
2009,04,05,14,28,14.10
2009,04,05,14,29,14.10
2009,04,05,14,30,14.20
2009,04,05,14,31,14.20
2009,04,05,14,32,14.30
2009,04,05,14,33,14.40
2009,04,05,14,34,14.40
2009,04,05,14,35,14.50
2009,04,05,14,36,14.60
2009,04,05,14,37,14.60
2009,04,05,14,38,14.60
2009,04,05,14,39,14.60
2009,04,05,14,40,14.60
2009,04,05,14,41,14.60
2009,04,05,14,42,14.60
2009,04,05,14,43,14.70
2009,04,05,14,44,14.70
2009,04,05,14,45,14.70
2009,04,05,14,46,14.70
2009,04,05,14,47,14.70
2009,04,05,14,48,14.70
2009,04,05,14,49,14.80
2009,04,05,14,50,14.80
2009,04,05,14,51,14.90
2009,04,05,14,52,14.80
2009,04,05,14,53,14.80
2009,04,05,14,54,14.70
2009,04,05,14,55,14.70
2009,04,05,14,56,14.60
2009,04,05,14,57,14.50
2009,04,05,14,58,14.50
2009,04,05,14,59,14.50
2009,04,05,15,00,14.60
2009,04,05,15,01,14.60
2009,04,05,15,02,14.60
2009,04,05,15,03,14.70
2009,04,05,15,04,14.80
2009,04,05,15,05,14.90
2009,04,05,15,06,15.00
2009,04,05,15,07,15.00
2009,04,05,15,08,15.00
2009,04,05,15,09,15.00
2009,04,05,15,10,15.00
2009,04,05,15,11,15.00
2009,04,05,15,12,15.00
2009,04,05,15,13,15.00
2009,04,05,15,14,15.00
2009,04,05,15,15,15.00
2009,04,05,15,16,15.00
2009,04,05,15,17,15.00
2009,04,05,15,18,15.00
2009,04,05,15,19,15.00
2009,04,05,15,20,15.00
2009,04,05,15,21,15.00
2009,04,05,15,22,15.00
2009,04,05,15,23,15.00
2009,04,05,15,24,15.00
2009,04,05,15,25,15.00
2009,04,05,15,26,15.00
2009,04,05,15,27,15.00
2009,04,05,15,28,15.00
2009,04,05,15,29,15.00
2009,04,05,15,30,15.00
2009,04,05,15,31,15.10
2009,04,05,15,32,15.30
2009,04,05,15,33,15.30
2009,04,05,15,34,15.30
2009,04,05,15,35,15.20
2009,04,05,15,36,15.20
2009,04,05,15,37,15.10
2009,04,05,15,38,15.00
2009,04,05,15,39,15.00
2009,04,05,15,40,15.00
2009,04,05,15,41,15.00
2009,04,05,15,42,15.00
2009,04,05,15,43,15.00
2009,04,05,15,44,15.00
2009,04,05,15,45,15.00
2009,04,05,15,46,15.00
2009,04,05,15,47,15.00
2009,04,05,15,48,15.00
2009,04,05,15,49,15.00
2009,04,05,15,50,15.00
2009,04,05,15,51,15.00
2009,04,05,15,52,15.00
2009,04,05,15,53,15.00
2009,04,05,15,54,15.00
2009,04,05,15,55,15.00
2009,04,05,15,56,15.00
2009,04,05,15,57,15.00
2009,04,05,15,58,15.00
2009,04,05,15,59,15.00
2009,04,05,16,00,15.00
2009,04,05,16,01,15.00
2009,04,05,16,02,15.00
2009,04,05,16,03,15.00
2009,04,05,16,04,15.00
2009,04,05,16,05,15.00
2009,04,05,16,06,15.00
2009,04,05,16,07,15.00
2009,04,05,16,08,15.00
2009,04,05,16,09,15.00
2009,04,05,16,10,15.00
2009,04,05,16,11,15.00
2009,04,05,16,12,15.00
2009,04,05,16,13,15.00
2009,04,05,16,14,15.00
2009,04,05,16,15,15.00
2009,04,05,16,16,15.00
2009,04,05,16,17,15.00
2009,04,05,16,18,15.00
2009,04,05,16,19,15.10
2009,04,05,16,20,15.20
2009,04,05,16,21,15.20
2009,04,05,16,22,15.20
2009,04,05,16,23,15.30
2009,04,05,16,24,15.20
2009,04,05,16,25,15.20
2009,04,05,16,26,15.20
2009,04,05,16,27,15.20
2009,04,05,16,28,15.20
2009,04,05,16,29,15.20
2009,04,05,16,30,15.20
2009,04,05,16,31,15.20
2009,04,05,16,32,15.20
2009,04,05,16,33,15.20
2009,04,05,16,34,15.10
2009,04,05,16,35,15.10
2009,04,05,16,36,15.20
2009,04,05,16,37,15.20
2009,04,05,16,38,15.20
2009,04,05,16,39,15.20
2009,04,05,16,40,15.20
2009,04,05,16,41,15.20
2009,04,05,16,42,15.20
2009,04,05,16,43,15.20
2009,04,05,16,44,15.20
2009,04,05,16,45,15.20
2009,04,05,16,46,15.20
2009,04,05,16,47,15.20
2009,04,05,16,48,15.10
2009,04,05,16,49,15.10
2009,04,05,16,50,15.00
2009,04,05,16,51,15.00
2009,04,05,16,52,15.00
2009,04,05,16,53,15.00
2009,04,05,16,54,15.00
2009,04,05,16,55,15.10
2009,04,05,16,56,15.10
2009,04,05,16,57,15.10
2009,04,05,16,58,15.10
2009,04,05,16,59,15.10
2009,04,05,17,00,15.10
2009,04,05,17,01,15.10
2009,04,05,17,02,15.10
2009,04,05,17,03,15.10
2009,04,05,17,04,15.00
2009,04,05,17,05,15.00
2009,04,05,17,06,15.00
2009,04,05,17,07,15.00
2009,04,05,17,08,15.00
2009,04,05,17,09,15.00
2009,04,05,17,10,15.00
2009,04,05,17,11,15.00
2009,04,05,17,12,15.00
2009,04,05,17,13,15.10
2009,04,05,17,14,15.10
2009,04,05,17,15,15.10
2009,04,05,17,16,15.10
2009,04,05,17,17,15.10
2009,04,05,17,18,15.10
2009,04,05,17,19,15.20
2009,04,05,17,20,15.20
2009,04,05,17,21,15.20
2009,04,05,17,22,15.20
2009,04,05,17,23,15.20
2009,04,05,17,24,15.20
2009,04,05,17,25,15.20
2009,04,05,17,26,15.20
2009,04,05,17,27,15.20
2009,04,05,17,28,15.20
2009,04,05,17,29,15.20
2009,04,05,17,30,15.20
2009,04,05,17,31,15.20
2009,04,05,17,32,15.20
2009,04,05,17,33,15.20
2009,04,05,17,34,15.20
2009,04,05,17,35,15.20
2009,04,05,17,36,15.20
2009,04,05,17,37,15.10
2009,04,05,17,38,15.10
2009,04,05,17,39,15.10
2009,04,05,17,40,15.00
2009,04,05,17,41,15.00
2009,04,05,17,42,15.00
2009,04,05,17,43,15.00
2009,04,05,17,44,15.00
2009,04,05,17,45,15.00
2009,04,05,17,46,15.00
2009,04,05,17,47,15.00
2009,04,05,17,48,15.00
2009,04,05,17,49,15.00
2009,04,05,17,50,15.00
2009,04,05,17,51,15.00
2009,04,05,17,52,14.90
2009,04,05,17,53,14.90
2009,04,05,17,54,14.90
2009,04,05,17,55,14.90
2009,04,05,17,56,14.90
2009,04,05,17,57,14.90
2009,04,05,17,58,14.80
2009,04,05,17,59,14.80
2009,04,05,18,00,14.80
2009,04,05,18,01,14.80
2009,04,05,18,02,14.80
2009,04,05,18,03,14.70
2009,04,05,18,04,14.70
2009,04,05,18,05,14.70
2009,04,05,18,06,14.70
2009,04,05,18,07,14.70
2009,04,05,18,08,14.70
2009,04,05,18,09,14.60
2009,04,05,18,10,14.60
2009,04,05,18,11,14.60
2009,04,05,18,12,14.60
2009,04,05,18,13,14.60
2009,04,05,18,14,14.60
2009,04,05,18,15,14.60
2009,04,05,18,16,14.60
2009,04,05,18,17,14.60
2009,04,05,18,18,14.60
2009,04,05,18,19,14.60
2009,04,05,18,20,14.60
2009,04,05,18,21,14.60
2009,04,05,18,22,14.60
2009,04,05,18,23,14.60
2009,04,05,18,24,14.60
2009,04,05,18,25,14.60
2009,04,05,18,26,14.60
2009,04,05,18,27,14.50
2009,04,05,18,28,14.50
2009,04,05,18,29,14.50
2009,04,05,18,30,14.50
2009,04,05,18,31,14.50
2009,04,05,18,32,14.50
2009,04,05,18,33,14.50
2009,04,05,18,34,14.50
2009,04,05,18,35,14.40
2009,04,05,18,36,14.40
2009,04,05,18,37,14.40
2009,04,05,18,38,14.40
2009,04,05,18,39,14.40
2009,04,05,18,40,14.40
2009,04,05,18,41,14.30
2009,04,05,18,42,14.30
2009,04,05,18,43,14.30
2009,04,05,18,44,14.30
2009,04,05,18,45,14.30
2009,04,05,18,46,14.30
2009,04,05,18,47,14.30
2009,04,05,18,48,14.30
2009,04,05,18,49,14.30
2009,04,05,18,50,14.30
2009,04,05,18,51,14.30
2009,04,05,18,52,14.30
2009,04,05,18,53,14.30
